Miscellaneous Local Product
Issued by NWS Hastings, NE

Home | Current Version | Previous Version | Text Only | Print | Product List | Glossary On
Versions: 1 2 3 4 5 6 7 8 9 10 11 12 13 14 15 16 17 18 19 20 21 22 23 24 25 26 27 28 29 30 31 32 33 34 35 36 37 38 39 40 41 42 43 44 45 46 47 48 49 50
000
AXUS43 KGID 021202
MISGRI

GID CWA HOURLY WEATHER ROUNDUP
NATIONAL WEATHER SERVICE HASTINGS NE
700 AM CDT TUE SEP 02 2014

NOTE: "FAIR" INDICATES FEW OR NO CLOUDS BELOW 12,000 FEET WITH NO
SIGNIFICANT WEATHER AND/OR OBSTRUCTIONS TO VISIBILITY.

...SOUTH CENTRAL NEBRASKA...

CITY           SKY/WX    TMP DP  RH WIND       PRES   REMARKS
GRAND ISLAND   CLEAR     53  50  89 W5        30.00R
HASTINGS       CLEAR     54  50  86 CALM      29.99S
KEARNEY        CLEAR     52  50  93 NW7       30.00R
ORD            CLEAR     49  48  97 NW3       29.98R
YORK           CLEAR     52 N/A N/A SW3       30.00R
AURORA         CLEAR     52  52 100 W6        29.99R
LEXINGTON      CLEAR     50  49  97 NW7       30.01R
HOLDREGE       CLEAR     53  51  95 CALM      30.01R
HEBRON         CLEAR     54  51  91 CALM      29.99R

...NEBRASKA PANHANDLE...

CITY           SKY/WX    TMP DP  RH WIND       PRES   REMARKS
CHADRON        CLEAR     44  42  93 SW5       30.02S
ALLIANCE       CLEAR     39  38  96 W6        30.06S WCI  35
SCOTTSBLUFF    CLEAR     43  42  97 E3        30.07S
SIDNEY         CLEAR     44  41  89 W8        30.09S

...WESTERN AND NORTH CENTRAL NEBRASKA...

CITY           SKY/WX    TMP DP  RH WIND       PRES   REMARKS
VALENTINE      CLEAR     46  45  96 SW5       30.00S
AINSWORTH      CLEAR     49  47  91 CALM      30.00R
ONEILL         CLEAR     52  51  97 W6        29.97S
BROKEN BOW     CLEAR     54  50  86 CALM      30.00S
IMPERIAL       CLEAR     52  49  89 N5        30.05R
NORTH PLATTE   FOG       46  45  96 CALM      30.03R VSB 1/4
MCCOOK         CLEAR     52  51  97 SW3       30.03R

...EASTERN NEBRASKA...

CITY           SKY/WX    TMP DP  RH WIND       PRES   REMARKS
NORFOLK        CLEAR     54  52  93 W5        29.97R
SO SIOUX CITY  CLEAR     54  53  97 S3        29.95
TEKAMAH        CLEAR     55  54  96 E3        29.95R
ALBION         CLEAR     51  49  93 NW6       29.98R
OMAHA EPPLEY   PTCLDY    57  54  89 NW7       29.96R
OFFUTT AFB     CLEAR     57  57 100 NW2       29.96R
MILLARD        CLEAR     59  56  92 NW3       29.96R
LINCOLN        CLEAR     55  53  93 CALM      29.99R
NEBRASKA CITY  CLEAR     58  58 100 NW7       29.96S
BEATRICE       CLEAR     55  55  97 S3        29.98R
FALLS CITY     CLEAR     60  59  96 NW7       29.95R

...NORTHERN KANSAS...

CITY           SKY/WX    TMP DP  RH WIND       PRES   REMARKS
GOODLAND       CLEAR     54  53  97 S10       30.08R
HILL CITY      CLEAR     58  55  90 CALM      30.04R
NORTON         SUNNY     54  50  87 SW3       30.01R
PHILLIPSBURG   CLEAR     55  55 100 W3        30.01R
SMITH CENTER   CLEAR     54  52  94 CALM      30.01R
BELOIT         FAIR      57  55  94 CALM      29.99
HAYS           PTCLDY    61  54  77 CALM      30.02R
RUSSELL        PTCLDY    62  59  90 N6        30.00R
CONCORDIA      CLEAR     58  58 100 NW7       29.99R
SALINA         CLOUDY    66  61  84 N3        29.98R
TOPEKA         CLOUDY    67  67 100 CALM      29.95R



USA.gov is the U.S. government's official web portal to all federal, state and local government web resources and services.